Wind_Speed
12 13 14 15 16 18 19 20 22 23 25 26 28 29 31 33 35 38 40 41 42 42 42 42 42 42 41 40 39 38 37 36 34 33 31 29 26 23 22 22 22 22 24
12 13 14 15 16 17 18 19 21 22 23 25 26 27 29 30 31 33 36 38 41 44 46 46 47 47 46 45 44 43 41 40 39 37 35 33 31 28 25 24 24 23 25
14 14 15 16 18 19 21 22 24 26 27 29 30 32 33 34 34 34 35 36 38 40 43 46 49 50 51 51 50 48 47 45 43 42 40 38 36 33 30 27 26 26 26
15 17 19 21 23 25 27 29 31 33 34 36 37 39 40 41 41 41 41 41 41 41 42 44 46 49 52 54 55 54 53 51 49 47 45 43 40 37 34 32 30 29 28
18 21 23 25 27 30 32 34 36 38 40 42 44 45 47 48 49 49 49 49 49 48 47 47 47 48 50 52 55 58 58 57 54 52 49 47 45 42 39 37 35 33 31
22 24 27 30 32 34 37 39 41 43 46 48 49 51 52 54 55 56 56 56 56 56 55 54 53 52 51 52 53 56 59 61 60 58 55 52 49 47 44 41 39 37 35
26 29 32 34 37 39 42 44 47 49 51 54 56 58 59 61 62 63 63 63 63 62 61 60 60 59 58 56 56 55 57 60 62 62 61 58 55 51 48 46 44 42 39
31 33 35 38 41 43 46 49 52 54 57 60 63 66 68 70 71 71 71 71 70 69 68 67 65 64 63 62 61 60 58 58 60 63 64 63 61 57 54 50 48 47 45
33 36 38 41 44 46 50 53 57 60 63 67 70 72 74 76 77 78 78 78 77 77 75 74 72 70 69 67 66 66 64 62 61 61 64 66 65 63 59 56 53 51 50
37 39 42 44 47 51 54 58 61 65 68 71 74 76 78 80 81 82 83 84 84 83 82 81 79 77 75 73 71 70 69 68 66 64 63 65 67 67 65 61 58 56 54
40 43 46 49 52 55 58 62 65 69 72 74 77 79 81 83 85 86 88 89 90 90 89 89 87 85 82 80 78 76 74 73 71 70 68 66 67 68 69 66 63 61 59
43 46 49 51 54 58 62 65 69 72 75 78 81 84 86 88 90 92 94 95 97 97 97 97 96 94 92 88 85 83 80 78 76 75 73 71 69 69 70 69 67 65 63
46 49 52 54 57 61 65 68 72 75 78 81 84 87 90 92 95 96 97 96 96 96 96 97 98 98 98 97 94 90 87 83 81 80 78 77 75 72 71 71 70 68 67
49 52 54 57 61 65 68 72 75 79 82 86 89 92 94 95 95 93 91 88 86 85 85 86 89 91 94 97 96 95 93 90 86 84 83 82 80 77 75 73 72 70 69
50 54 57 61 65 69 73 77 81 85 88 91 94 95 94 92 88 84 81 79 78 77 77 77 78 79 82 87 90 92 93 93 91 89 88 87 85 83 80 77 74 73 71
54 57 61 65 69 73 77 81 86 89 91 93 94 93 89 85 81 78 76 75 74 72 72 71 72 73 74 77 80 84 88 90 92 92 92 92 90 88 86 82 79 76 74
57 61 65 69 73 77 81 85 88 91 93 93 91 87 83 80 78 76 73 70 68 66 64 63 63 65 68 71 74 77 81 85 88 92 95 96 95 93 91 88 84 80 77
60 64 68 72 75 79 83 87 90 92 92 90 86 83 80 78 75 71 67 63 59 56 53 52 53 55 58 63 68 72 75 80 85 91 96 99 100 98 96 92 89 85 81
62 66 71 74 78 82 85 88 91 91 89 85 82 80 78 75 71 65 60 56 52 50 49 48 47 48 50 54 60 66 71 76 82 90 96 100 103 103 100 97 93 90 85
65 69 73 76 80 83 86 88 90 88 85 82 80 79 76 72 66 60 56 53 52 51 50 50 49 48 48 48 51 57 64 72 79 86 95 102 106 106 104 101 98 94 90
67 71 74 77 81 83 86 88 88 85 81 80 79 77 73 69 63 59 56 54 55 55 55 55 54 51 50 49 48 49 55 65 74 82 91 100 106 109 108 105 102 98 95
69 72 75 78 81 84 87 89 87 82 79 78 76 74 70 65 62 59 58 58 59 60 60 61 60 57 54 53 50 47 48 56 67 77 86 95 103 109 111 109 106 102 98
70 73 76 79 83 86 88 88 83 80 78 77 74 70 66 62 61 61 62 63 65 66 66 65 64 62 58 56 54 51 48 50 59 68 80 90 98 104 110 112 109 105 102
71 74 76 80 84 87 88 85 82 79 77 76 73 68 64 62 62 64 67 69 71 72 72 70 68 65 62 57 56 54 51 48 53 61 71 84 92 98 104 110 111 109 105
72 74 77 81 85 86 86 83 80 79 78 75 71 66 62 62 65 69 72 75 76 76 74 72 69 67 63 59 55 54 52 50 49 56 63 75 86 92 98 105 111 111 108
72 75 78 82 84 85 84 81 79 78 76 74 69 65 64 65 69 73 75 74 71 67 64 62 61 60 59 56 53 52 51 50 50 51 57 66 79 87 91 98 106 111 110
Wind_Direction
304 305 307 308 308 307 305 304 302 300 298 296 293 289 285 281 277 274 271 268 265 263 262 261 260 259 258 257 257 256 256 256 256 257 256 254 251 247 241 236 234 232 229
344 341 338 333 328 324 320 316 312 308 305 301 298 295 292 288 284 280 276 273 269 266 264 262 261 259 258 257 256 255 254 254 254 254 254 253 251 248 244 238 234 231 230
357 350 342 335 329 323 318 314 310 306 303 300 298 295 293 290 287 284 281 277 274 270 267 264 261 260 258 257 255 255 254 253 252 252 252 252 251 249 246 241 235 232 230
346 337 330 325 320 315 312 309 307 304 302 300 297 295 292 290 288 285 283 280 278 275 272 268 265 261 258 256 255 254 253 252 251 250 250 251 250 248 245 242 237 233 230
329 324 319 316 313 311 309 307 306 304 302 299 297 295 292 290 288 286 283 281 278 276 273 270 268 265 262 258 255 253 252 250 250 249 248 248 248 247 245 242 239 235 231
319 316 314 313 313 312 311 309 307 305 303 301 299 296 294 291 289 286 284 281 278 276 273 271 269 266 264 261 258 255 252 250 249 248 247 246 245 245 244 241 238 236 233
317 317 317 317 316 315 313 312 310 308 306 304 301 299 296 294 291 288 285 282 280 277 274 271 269 266 264 261 259 257 254 251 249 247 246 245 244 243 242 241 238 235 233
320 320 320 319 318 317 315 313 311 309 308 305 303 301 299 296 294 291 288 285 281 278 275 272 269 266 264 261 259 257 254 252 250 247 245 244 243 241 240 239 237 234 233
323 322 321 320 319 317 316 314 313 311 309 307 305 302 300 297 294 291 289 285 282 279 276 273 270 266 263 261 258 256 253 251 250 248 246 244 242 240 239 237 235 233 232
324 322 321 320 319 318 317 315 313 312 310 308 305 303 300 297 294 291 288 285 282 279 276 273 270 267 264 260 257 255 252 250 248 246 245 244 242 240 238 236 235 233 231
323 323 322 321 320 318 316 315 313 311 309 307 304 302 299 296 293 290 288 285 281 278 275 272 268 265 263 260 257 254 251 248 246 245 243 242 241 240 238 236 234 232 231
324 322 320 318 317 316 315 314 312 310 308 306 304 301 299 296 293 290 288 285 282 279 276 273 270 266 263 260 257 254 250 247 244 243 241 240 239 239 237 235 233 232 230
323 320 318 317 316 316 314 313 311 310 309 308 306 304 301 298 295 292 290 287 284 281 278 275 272 268 264 261 258 254 250 246 243 240 238 237 237 236 236 235 233 231 230
321 319 318 318 317 316 315 314 314 313 312 311 309 306 303 300 298 295 293 290 286 283 279 275 272 269 265 262 259 255 251 247 242 239 236 235 234 233 233 232 232 230 230
321 321 321 320 319 318 318 317 317 316 315 314 311 308 306 303 300 297 295 292 289 285 280 275 271 267 264 261 257 254 251 247 242 238 234 232 231 231 230 230 229 229 229
324 324 323 322 321 321 320 320 319 318 317 315 312 310 308 306 304 302 299 297 293 290 285 279 273 267 262 258 255 252 248 244 241 236 232 230 229 228 228 228 227 226 226
326 326 325 324 323 323 323 322 321 319 318 316 314 312 311 309 308 306 303 300 297 293 289 284 278 271 264 257 253 250 245 240 236 233 230 227 226 226 225 225 225 224 224
327 327 327 326 326 326 325 324 322 320 319 318 316 315 314 312 310 308 305 302 299 295 292 288 283 276 268 259 252 247 243 238 232 228 226 225 224 224 223 223 223 222 222
329 329 328 328 328 327 326 324 323 322 321 320 319 317 316 314 311 308 305 302 299 296 294 291 288 283 275 265 255 247 241 237 232 226 223 222 221 221 221 221 221 221 220
331 330 329 330 329 328 326 325 324 323 323 322 320 319 317 315 311 308 304 301 298 296 294 292 290 287 282 274 263 251 242 236 232 227 222 220 219 219 219 219 219 219 219
332 331 331 331 329 327 326 325 325 325 324 323 322 321 318 315 311 307 303 300 297 295 292 290 288 285 283 279 271 258 246 238 232 227 224 220 218 217 217 217 217 217 217
333 333 332 331 329 328 328 327 327 327 326 326 324 323 319 315 311 307 303 299 296 293 290 287 284 282 279 277 274 266 252 241 235 228 225 222 219 216 215 215 216 216 216
334 334 332 331 330 330 329 329 329 329 328 327 326 324 320 315 311 307 304 300 297 293 289 285 281 278 275 272 271 267 258 245 236 231 226 223 220 218 215 214 214 214 215
335 334 333 332 332 331 331 331 331 331 330 329 328 326 322 318 315 311 307 303 298 293 288 283 278 274 271 267 264 263 259 251 238 230 228 224 221 219 217 214 213 213 213
336 335 335 334 333 332 332 333 333 333 333 332 331 329 325 322 318 315 311 306 301 295 289 283 276 271 267 263 259 256 256 252 243 231 226 225 221 220 219 215 213 212 212
337 337 336 335 334 334 334 335 335 335 335 335 333 331 329 326 324 320 317 313 308 302 294 285 276 268 262 258 254 251 249 248 245 234 224 223 222 220 219 217 214 212 211
Height
5868 5867 5866 5865 5865 5864 5863 5862 5861 5860 5859 5858 5856 5855 5855 5854 5853 5853 5852 5852 5851 5851 5851 5851 5851 5852 5852 5853 5853 5854 5854 5855 5856 5856 5856 5857 5859 5860 5861 5863 5864 5866 5868
5866 5865 5865 5864 5863 5862 5860 5859 5858 5857 5855 5853 5852 5850 5849 5847 5846 5845 5844 5843 5843 5843 5843 5843 5843 5843 5844 5845 5846 5847 5847 5848 5849 5850 5851 5852 5854 5855 5856 5858 5860 5861 5863
5865 5864 5863 5862 5861 5859 5858 5856 5855 5853 5851 5849 5847 5845 5843 5841 5840 5838 5837 5835 5834 5834 5833 5833 5834 5834 5835 5835 5837 5838 5839 5840 5842 5843 5845 5846 5848 5850 5851 5853 5854 5856 5858
5864 5863 5861 5859 5858 5856 5854 5852 5850 5848 5846 5844 5841 5839 5836 5834 5832 5830 5828 5827 5825 5825 5824 5824 5823 5823 5824 5825 5826 5827 5829 5831 5833 5835 5837 5839 5841 5843 5845 5847 5849 5851 5853
5862 5860 5858 5856 5854 5852 5849 5847 5844 5841 5839 5836 5833 5830 5827 5824 5822 5820 5818 5816 5815 5814 5813 5813 5812 5812 5812 5813 5814 5815 5818 5820 5823 5826 5828 5831 5833 5836 5839 5841 5843 5845 5847
5860 5857 5855 5852 5849 5846 5843 5840 5836 5833 5830 5826 5823 5820 5816 5813 5810 5807 5805 5803 5802 5801 5800 5800 5800 5800 5801 5801 5802 5803 5805 5808 5811 5814 5818 5821 5824 5827 5830 5833 5836 5838 5841
5856 5853 5850 5846 5842 5838 5835 5831 5827 5823 5819 5815 5811 5807 5803 5799 5796 5793 5790 5788 5786 5785 5784 5784 5784 5785 5787 5788 5789 5790 5792 5794 5797 5801 5805 5809 5813 5817 5820 5824 5828 5830 5834
5851 5847 5843 5839 5835 5830 5826 5821 5817 5813 5808 5802 5797 5792 5787 5783 5779 5775 5772 5769 5767 5766 5765 5765 5766 5767 5769 5771 5773 5776 5778 5781 5784 5787 5791 5795 5800 5805 5809 5813 5818 5822 5825
5845 5841 5837 5832 5828 5823 5817 5812 5806 5801 5795 5789 5783 5777 5771 5765 5760 5755 5751 5748 5746 5744 5743 5743 5744 5746 5749 5751 5754 5758 5762 5765 5769 5772 5776 5780 5785 5790 5796 5801 5806 5811 5815
5840 5835 5830 5825 5819 5813 5807 5801 5795 5788 5782 5775 5768 5761 5754 5747 5740 5734 5729 5725 5722 5719 5718 5718 5719 5722 5725 5728 5732 5737 5742 5747 5752 5756 5761 5765 5769 5775 5782 5788 5794 5799 5804
5834 5828 5822 5816 5810 5804 5798 5790 5783 5775 5768 5760 5752 5744 5735 5727 5719 5711 5704 5699 5694 5691 5690 5689 5691 5694 5698 5702 5707 5713 5719 5726 5732 5738 5744 5749 5754 5759 5766 5773 5780 5786 5792
5828 5821 5815 5809 5802 5795 5787 5779 5771 5762 5753 5744 5734 5724 5714 5704 5694 5686 5678 5671 5664 5660 5658 5658 5659 5662 5667 5673 5679 5686 5693 5702 5709 5717 5724 5730 5736 5743 5750 5757 5764 5772 5779
5820 5814 5807 5800 5793 5785 5776 5767 5758 5748 5737 5726 5715 5703 5691 5679 5667 5657 5648 5640 5634 5628 5625 5623 5624 5627 5632 5639 5647 5655 5665 5674 5684 5693 5702 5709 5717 5726 5733 5740 5748 5756 5764
5813 5806 5799 5790 5782 5773 5763 5753 5741 5729 5717 5704 5691 5678 5666 5653 5640 5628 5618 5610 5603 5598 5594 5591 5591 5593 5597 5603 5612 5622 5632 5644 5656 5667 5678 5686 5696 5705 5714 5722 5731 5740 5748
5806 5798 5789 5780 5770 5759 5747 5735 5722 5708 5694 5680 5666 5651 5637 5625 5613 5601 5591 5582 5575 5569 5565 5563 5562 5562 5564 5569 5576 5586 5598 5610 5624 5638 5651 5661 5673 5683 5693 5703 5713 5723 5732
5797 5788 5778 5768 5756 5744 5731 5717 5702 5688 5672 5657 5641 5626 5611 5598 5586 5575 5566 5557 5550 5543 5538 5535 5534 5535 5536 5539 5545 5552 5564 5577 5591 5605 5621 5635 5647 5659 5671 5682 5693 5705 5715
5788 5778 5767 5755 5742 5728 5714 5698 5683 5667 5651 5635 5619 5604 5589 5576 5564 5553 5543 5535 5527 5521 5515 5511 5509 5508 5510 5513 5518 5523 5532 5544 5558 5572 5589 5606 5620 5634 5647 5660 5673 5685 5697
5778 5767 5755 5742 5728 5713 5697 5681 5664 5647 5630 5613 5597 5583 5569 5556 5544 5533 5524 5515 5508 5502 5496 5492 5488 5486 5486 5487 5492 5498 5505 5514 5526 5540 5557 5575 5591 5606 5622 5637 5652 5665 5678
5768 5756 5743 5729 5714 5698 5681 5664 5646 5627 5609 5593 5577 5563 5550 5537 5525 5515 5506 5498 5492 5486 5480 5475 5472 5468 5466 5465 5468 5473 5480 5487 5497 5510 5526 5544 5561 5578 5597 5614 5629 5644 5658
5758 5745 5731 5716 5700 5684 5667 5649 5630 5610 5592 5575 5560 5545 5532 5519 5508 5498 5490 5483 5476 5470 5465 5460 5456 5452 5448 5447 5448 5451 5456 5462 5470 5483 5498 5513 5529 5550 5570 5588 5606 5622 5638
5747 5733 5719 5703 5687 5671 5654 5636 5618 5599 5580 5563 5545 5529 5515 5502 5491 5482 5474 5466 5459 5453 5448 5442 5438 5436 5432 5429 5429 5432 5436 5439 5446 5458 5470 5484 5500 5522 5543 5562 5581 5599 5617
5737 5722 5707 5691 5675 5657 5639 5620 5601 5583 5565 5548 5531 5514 5499 5486 5474 5465 5457 5449 5441 5434 5428 5422 5418 5416 5415 5411 5410 5412 5417 5422 5425 5435 5445 5458 5475 5494 5515 5536 5557 5577 5595
5727 5711 5696 5679 5662 5643 5624 5605 5587 5570 5553 5536 5520 5503 5487 5473 5460 5449 5439 5429 5420 5412 5405 5399 5395 5392 5393 5393 5391 5393 5397 5402 5408 5415 5423 5436 5451 5468 5489 5510 5532 5553 5573
5716 5700 5684 5667 5648 5629 5609 5590 5573 5556 5540 5522 5505 5489 5473 5459 5445 5432 5420 5406 5395 5384 5376 5371 5368 5366 5368 5372 5372 5373 5377 5381 5388 5398 5405 5416 5430 5446 5464 5485 5508 5530 5550
5706 5690 5673 5654 5635 5616 5596 5578 5560 5543 5525 5508 5491 5476 5461 5446 5431 5414 5398 5382 5366 5353 5343 5338 5337 5337 5341 5346 5352 5355 5359 5363 5369 5378 5389 5398 5411 5425 5441 5461 5483 5506 5528
5697 5680 5662 5643 5624 5605 5585 5567 5549 5532 5514 5497 5480 5465 5449 5434 5416 5395 5375 5355 5336 5321 5310 5304 5303 5307 5313 5321 5329 5336 5341 5347 5352 5360 5372 5381 5392 5407 5422 5440 5460 5483 5505